FENGYUN 1C DEB, 31782

Orbit data source: Space-Track

FENGYUN 1C DEB, 31782 is space debris in SSO originally from a launch on Mon, 10 May 1999 UTC launched from the Taiyaun Space Center, China (TSC). Fengyun 1C debris stems from the Chinese weather satellite Fengyun-1C, which was intentionally destroyed by a Chinese anti-satellite missile in 2007. This event dramatically increased the amount of space debris, with thousands of trackable fragments posing hazards to satellites and human spaceflight. The Fengyun 1C debris cloud has become a focal point in discussions about space sustainability and the need for international regulations to prevent the creation of new debris.

Loading next visibility...
Identifier
31782, 1999-025CGH
Orbit
SSO
Country
Flag of CNCN / PRC
Related business
Manufacturer
Unknown
Mission
Spacecraft
Bus & Motor
Unknown
Mass
Unknown
Launch date (UTC)
1999-05-10 (27 years ago)
Launch vehicle
Unknown
Launch site
Taiyaun Space Center, China (TSC)
Object type
Payload
Rocket body
Debris
Shape & HBR
Unknown shape, 0.1 m
Radar Cross Section
Small (<0.1 m²)

Expand to show TLE details & history
Last TLE update: 7 hours ago

TLE from 7 hours ago
0 FENGYUN 1C DEB
1 31782U 99025CGH 26167.25546662  .00000899  00000-0  30999-3 0  9993
2 31782  98.9231 339.9126 0079253 169.8062   3.4935 14.36720017993541
Epoch: 2026-06-16T06:07Z
TLE epoch observation values (Epoch: 2026-06-16T06:07:52.315Z)
Latitude
6.48683°
Longitude
164.43192°
Altitude
715.128 km
Speed
7.528 km/s
True Right ascension
10h 43m 43s
True Declination
6° 26' 53"
Sunlit
Object was in daylight at epoch
Visualization orbit readout
Latitude
Unknown
Longitude
Unknown
Altitude
Unknown
Speed
Unknown
Apparent Right ascension
Unknown
Apparent Declination
Unknown
Sunlit
N/A
Visualization observer readout
Local Sidereal Time
23:20:57
Azimuth
Unknown
Elevation
Unknown
Doppler factor
Unknown
Orbital elements
Apogee altitude
823.126 km
Perigee altitude
709.879 km
Semi-major axis
7,144.64 km
Eccentricity
0.00793
Inclination
98.9231°
RAAN
339.9126°
Arg. of periapsis
169.8062°
True anomaly
3.54939°
Mean anomaly
3.4935°
Eccentric anomaly
3.52139°
Mean motion
3.59396 °/min
Orbital period
100.17 mins
BSTAR
0.00030999
Loading maneuver chart data...
Computing Atmospheric mass density...

Documentation

Showing up to 5 results
|